| time (UTC) | temp F | wind direction | speed knots | gust knots | rain 1hr in | rain 24hr in | rain mn in | humidity % | barometer mb |
| 20260510221009 | 83 | 68 | 1.7 | 5.2 | 0.00 | 0.01 | 0.00 | 63 | 1015.2 |
| 20260510220507 | 83 | 92 | 1.7 | 5.2 | 0.00 | 0.01 | 0.00 | 63 | 1015.1 |
| 20260510220025 | 84 | 125 | 0.9 | 3.5 | 0.00 | 0.01 | 0.00 | 65 | 1015.2 |
| 20260510215511 | 84 | 163 | 1.7 | 2.6 | 0.00 | 0.01 | 0.00 | 64 | 1015.3 |
| 20260510215012 | 83 | 146 | 0.9 | 1.7 | 0.00 | 0.01 | 0.00 | 65 | 1015.2 |
| 20260510214527 | 83 | 39 | 0.9 | 3.5 | 0.00 | 0.01 | 0.00 | 64 | 1015.3 |
| 20260510214007 | 83 | 352 | 0.9 | 3.5 | 0.00 | 0.01 | 0.00 | 63 | 1015.3 |
| 20260510213502 | 84 | 352 | 0.9 | 2.6 | 0.00 | 0.01 | 0.00 | 64 | 1015.2 |
| 20260510213015 | 83 | 137 | 0.0 | 1.7 | 0.00 | 0.01 | 0.00 | 66 | 1015.3 |
| 20260510212502 | 83 | 137 | 0.9 | 3.5 | 0.00 | 0.01 | 0.00 | 64 | 1015.2 |
| 20260510212008 | 83 | 160 | 0.9 | 3.5 | 0.00 | 0.01 | 0.00 | 63 | 1015.2 |
| 20260510211518 | 83 | 190 | 0.0 | 2.6 | 0.00 | 0.01 | 0.00 | 65 | 1015.4 |
| 20260510211007 | 83 | 235 | 0.9 | 2.6 | 0.00 | 0.01 | 0.00 | 64 | 1015.5 |
| 20260510210506 | 83 | 334 | 0.0 | 2.6 | 0.00 | 0.01 | 0.00 | 65 | 1015.5 |
| 20260510210023 | 82 | 138 | 0.0 | 2.6 | 0.00 | 0.01 | 0.00 | 67 | 1015.6 |
| 20260510205507 | 82 | 156 | 0.0 | 1.7 | 0.00 | 0.01 | 0.00 | 68 | 1015.6 |
| 20260510205007 | 81 | 59 | 0.0 | 1.7 | 0.00 | 0.01 | 0.00 | 66 | 1015.6 |
| 20260510204526 | 81 | 105 | 0.9 | 1.7 | 0.00 | 0.01 | 0.00 | 68 | 1015.6 |
| 20260510204006 | 81 | 184 | 0.0 | 1.7 | 0.00 | 0.01 | 0.00 | 67 | 1015.6 |
| 20260510203503 | 81 | 116 | 0.0 | 3.5 | 0.00 | 0.01 | 0.00 | 68 | 1015.6 |
| 20260510203014 | 81 | 116 | 0.9 | 4.3 | 0.00 | 0.01 | 0.00 | 67 | 1015.6 |
| 20260510202504 | 81 | 65 | 1.7 | 4.3 | 0.00 | 0.01 | 0.00 | 68 | 1015.7 |
| 20260510202007 | 81 | 96 | 0.0 | 4.3 | 0.00 | 0.01 | 0.00 | 69 | 1015.7 |
| 20260510201519 | 80 | 96 | 1.7 | 4.3 | 0.00 | 0.01 | 0.00 | 70 | 1015.7 |
| 20260510201006 | 80 | 83 | 1.7 | 6.1 | 0.00 | 0.01 | 0.00 | 70 | 1015.8 |
| 20260510200507 | 80 | 29 | 1.7 | 6.1 | 0.00 | 0.01 | 0.00 | 68 | 1015.8 |
| 20260510200024 | 81 | 109 | 1.7 | 6.1 | 0.00 | 0.01 | 0.00 | 66 | 1015.8 |
| 20260510195506 | 81 | 85 | 2.6 | 5.2 | 0.00 | 0.01 | 0.00 | 68 | 1015.8 |
| 20260510195007 | 81 | 104 | 2.6 | 5.2 | 0.00 | 0.01 | 0.00 | 69 | 1015.9 |
| 20260510194528 | 82 | 80 | 3.5 | 5.2 | 0.00 | 0.01 | 0.00 | 68 | 1015.9 |
| 20260510194007 | 81 | 25 | 0.0 | 4.3 | 0.00 | 0.01 | 0.00 | 68 | 1016.0 |
| 20260510193507 | 81 | 96 | 2.6 | 6.1 | 0.00 | 0.01 | 0.00 | 67 | 1016.0 |
| 20260510193030 | 81 | 317 | 2.6 | 6.1 | 0.00 | 0.01 | 0.00 | 67 | 1016.0 |
| 20260510192503 | 81 | 251 | 1.7 | 5.2 | 0.00 | 0.01 | 0.00 | 67 | 1016.0 |
| 20260510192007 | 81 | 331 | 1.7 | 5.2 | 0.00 | 0.01 | 0.00 | 67 | 1016.0 |
| 20260510191516 | 81 | 34 | 2.6 | 5.2 | 0.00 | 0.01 | 0.00 | 66 | 1016.1 |
| 20260510191004 | 81 | 94 | 1.7 | 3.5 | 0.00 | 0.01 | 0.00 | 67 | 1016.0 |
| 20260510190511 | 81 | 267 | 0.9 | 2.6 | 0.00 | 0.01 | 0.00 | 68 | 1016.1 |
| 20260510190023 | 81 | 215 | 0.0 | 3.5 | 0.00 | 0.01 | 0.00 | 73 | 1016.1 |
| 20260510185506 | 80 | 60 | 2.6 | 5.2 | 0.00 | 0.01 | 0.00 | 68 | 1016.2 |
| 20260510185007 | 80 | 109 | 3.5 | 5.2 | 0.00 | 0.01 | 0.00 | 68 | 1016.1 |
| 20260510184532 | 81 | 88 | 2.6 | 4.3 | 0.00 | 0.01 | 0.00 | 68 | 1016.2 |
| 20260510184007 | 81 | 360 | 0.9 | 5.2 | 0.00 | 0.02 | 0.00 | 68 | 1016.1 |
| 20260510183509 | 80 | 302 | 0.0 | 5.2 | 0.00 | 0.02 | 0.00 | 72 | 1016.2 |
| 20260510183026 | 80 | 134 | 1.7 | 4.3 | 0.00 | 0.02 | 0.00 | 72 | 1016.1 |
| 20260510182508 | 79 | 20 | 0.9 | 4.3 | 0.00 | 0.03 | 0.00 | 71 | 1016.3 |
| 20260510182013 | 79 | 97 | 1.7 | 4.3 | 0.00 | 0.04 | 0.00 | 71 | 1016.3 |
| 20260510181514 | 79 | 91 | 2.6 | 7.0 | 0.00 | 0.06 | 0.00 | 73 | 1016.4 |
| 20260510181004 | 79 | 128 | 3.5 | 6.1 | 0.00 | 0.07 | 0.00 | 72 | 1016.3 |
| 20260510180506 | 78 | 352 | 0.9 | 2.6 | 0.00 | 0.09 | 0.00 | 75 | 1016.4 |
| 20260510180021 | 78 | 215 | 0.0 | 5.2 | 0.00 | 0.12 | 0.00 | 72 | 1016.5 |
| 20260510175510 | 78 | 74 | 2.6 | 4.3 | 0.00 | 0.14 | 0.00 | 73 | 1016.6 |
| 20260510175010 | 78 | 213 | 2.6 | 4.3 | 0.00 | 0.17 | 0.00 | 73 | 1016.6 |
| 20260510174525 | 78 | 178 | 2.6 | 3.5 | 0.00 | 0.19 | 0.00 | 73 | 1016.7 |
| 20260510174010 | 78 | 288 | 2.6 | 3.5 | 0.00 | 0.20 | 0.00 | 74 | 1017.0 |
| 20260510173507 | 77 | 135 | 0.9 | 4.3 | 0.00 | 0.22 | 0.00 | 75 | 1017.0 |
| 20260510173027 | 77 | 5 | 1.7 | 5.2 | 0.00 | 0.24 | 0.00 | 77 | 1017.1 |
| 20260510172509 | 76 | 23 | 2.6 | 6.1 | 0.00 | 0.26 | 0.00 | 76 | 1017.2 |
| 20260510172010 | 77 | 32 | 2.6 | 6.1 | 0.00 | 0.27 | 0.00 | 76 | 1017.1 |
| 20260510171528 | 77 | 280 | 2.6 | 4.3 | 0.00 | 0.27 | 0.00 | 76 | 1017.2 |
| 20260510171008 | 77 | 86 | 1.7 | 5.2 | 0.00 | 0.29 | 0.00 | 77 | 1017.1 |
| 20260510170508 | 76 | 311 | 1.7 | 5.2 | 0.00 | 0.30 | 0.00 | 76 | 1017.1 |
| 20260510170019 | 76 | 45 | 3.5 | 7.0 | 0.00 | 0.31 | 0.00 | 78 | 1017.3 |
| 20260510165505 | 76 | 23 | 2.6 | 7.0 | 0.00 | 0.33 | 0.00 | 79 | 1017.3 |
| 20260510165005 | 76 | 92 | 2.6 | 5.2 | 0.00 | 0.35 | 0.00 | 80 | 1017.3 |
| 20260510164523 | 76 | 32 | 1.7 | 4.3 | 0.00 | 0.37 | 0.00 | 78 | 1017.4 |
| 20260510164006 | 76 | 342 | 2.6 | 6.1 | 0.00 | 0.40 | 0.00 | 78 | 1017.4 |
| 20260510163508 | 76 | 34 | 2.6 | 6.1 | 0.00 | 0.46 | 0.00 | 79 | 1017.4 |
| 20260510163026 | 76 | 127 | 1.7 | 5.2 | 0.00 | 0.57 | 0.00 | 78 | 1017.4 |
| 20260510162508 | 76 | 75 | 1.7 | 5.2 | 0.00 | 0.64 | 0.00 | 80 | 1017.5 |
| 20260510162003 | 76 | 87 | 1.7 | 5.2 | 0.00 | 0.65 | 0.00 | 79 | 1017.6 |
| 20260510161512 | 75 | 211 | 0.9 | 6.1 | 0.00 | 0.65 | 0.00 | 78 | 1017.5 |
| 20260510161005 | 75 | 122 | 3.5 | 6.1 | 0.00 | 0.65 | 0.00 | 79 | 1017.5 |
| 20260510160503 | 75 | 151 | 1.7 | 3.5 | 0.00 | 0.65 | 0.00 | 79 | 1017.4 |
| 20260510160017 | 75 | 248 | 0.0 | 2.6 | 0.00 | 0.65 | 0.00 | 79 | 1017.6 |
| 20260510155504 | 74 | 209 | 0.9 | 3.5 | 0.00 | 0.66 | 0.00 | 79 | 1017.7 |
| 20260510155004 | 74 | 136 | 1.7 | 4.3 | 0.00 | 0.70 | 0.00 | 83 | 1017.7 |
| 20260510154504 | 74 | 71 | 1.7 | 4.3 | 0.00 | 0.72 | 0.00 | 81 | 1017.7 |
| 20260510154004 | 73 | 47 | 0.9 | 5.2 | 0.00 | 0.76 | 0.00 | 81 | 1017.7 |
| 20260510153503 | 73 | 80 | 1.7 | 5.2 | 0.00 | 0.80 | 0.00 | 81 | 1017.7 |
| 20260510153005 | 73 | 83 | 3.5 | 5.2 | 0.00 | 0.88 | 0.00 | 83 | 1017.8 |
| 20260510152505 | 72 | 5 | 1.7 | 7.0 | 0.00 | 0.89 | 0.00 | 82 | 1017.7 |
| 20260510152004 | 72 | 88 | 2.6 | 7.0 | 0.00 | 0.89 | 0.00 | 83 | 1017.7 |
| 20260510151511 | 72 | 79 | 4.3 | 7.0 | 0.00 | 0.90 | 0.00 | 84 | 1017.6 |
| 20260510151005 | 72 | 341 | 3.5 | 6.1 | 0.00 | 0.93 | 0.00 | 84 | 1017.6 |
| 20260510150506 | 72 | 58 | 3.5 | 5.2 | 0.00 | 0.94 | 0.00 | 83 | 1017.5 |
| 20260510150016 | 72 | 86 | 2.6 | 5.2 | 0.00 | 0.95 | 0.00 | 84 | 1017.5 |
| 20260510145511 | 72 | 360 | 2.6 | 6.1 | 0.00 | 0.95 | 0.00 | 84 | 1017.5 |
| 20260510145006 | 72 | 29 | 1.7 | 6.1 | 0.00 | 0.96 | 0.00 | 86 | 1017.5 |
| 20260510144524 | 71 | 78 | 0.9 | 4.3 | 0.00 | 0.96 | 0.00 | 87 | 1017.5 |
| 20260510144007 | 71 | 38 | 2.6 | 4.3 | 0.00 | 0.97 | 0.00 | 87 | 1017.5 |
| 20260510143502 | 71 | 105 | 1.7 | 4.3 | 0.00 | 0.97 | 0.00 | 87 | 1017.4 |
| 20260510143007 | 71 | 131 | 0.0 | 3.5 | 0.00 | 0.98 | 0.00 | 87 | 1017.4 |
| 20260510142503 | 70 | 90 | 1.7 | 4.3 | 0.00 | 0.99 | 0.00 | 89 | 1017.4 |
| 20260510142003 | 70 | 153 | 3.5 | 6.1 | 0.00 | 1.00 | 0.00 | 90 | 1017.4 |
| 20260510141510 | 70 | 119 | 2.6 | 6.1 | 0.00 | 1.00 | 0.00 | 90 | 1017.3 |
| 20260510141008 | 69 | 100 | 2.6 | 6.1 | 0.00 | 1.00 | 0.00 | 92 | 1017.3 |
| 20260510140504 | 68 | 90 | 0.9 | 3.5 | 0.00 | 1.02 | 0.00 | 94 | 1017.2 |
| 20260510140013 | 68 | 71 | 1.7 | 3.5 | 0.00 | 1.02 | 0.00 | 95 | 1017.3 |
| 20260510135505 | 68 | 74 | 0.9 | 3.5 | 0.00 | 1.03 | 0.00 | 95 | 1017.4 |
| 20260510135009 | 67 | 94 | 1.7 | 3.5 | 0.00 | 1.03 | 0.00 | 96 | 1017.4 |
| 20260510134523 | 68 | 40 | 2.6 | 3.5 | 0.00 | 1.03 | 0.00 | 96 | 1017.4 |
| 20260510134005 | 67 | 33 | 1.7 | 3.5 | 0.00 | 1.03 | 0.00 | 97 | 1017.3 |
| 20260510133506 | 67 | 360 | 1.7 | 3.5 | 0.00 | 1.03 | 0.00 | 97 | 1017.4 |
| 20260510133025 | 67 | 336 | 2.6 | 3.5 | 0.00 | 1.03 | 0.00 | 97 | 1017.4 |
| 20260510132504 | 67 | 35 | 0.9 | 3.5 | 0.00 | 1.03 | 0.00 | 97 | 1017.5 |
| 20260510132003 | 67 | 66 | 1.7 | 3.5 | 0.00 | 1.03 | 0.00 | 97 | 1017.3 |
| 20260510131504 | 67 | 180 | 1.7 | 3.5 | 0.00 | 1.03 | 0.00 | 97 | 1017.3 |
| 20260510131004 | 67 | 57 | 1.7 | 3.5 | 0.00 | 1.03 | 0.00 | 97 | 1017.2 |
| 20260510130503 | 67 | 50 | 1.7 | 3.5 | 0.00 | 1.03 | 0.00 | 97 | 1017.2 |
| 20260510130028 | 67 | 51 | 1.7 | 2.6 | 0.00 | 1.03 | 0.00 | 97 | 1017.1 |
| 20260510125506 | 67 | 42 | 0.9 | 1.7 | 0.00 | 1.03 | 0.00 | 98 | 1017.0 |
| 20260510125008 | 67 | 24 | 0.9 | 2.6 | 0.00 | 1.03 | 0.00 | 98 | 1016.9 |
| 20260510124516 | 66 | 33 | 0.0 | 2.6 | 0.00 | 1.03 | 0.00 | 98 | 1016.9 |
| 20260510124006 | 66 | 108 | 1.7 | 2.6 | 0.00 | 1.03 | 0.00 | 98 | 1016.8 |
| 20260510123507 | 66 | 76 | 1.7 | 2.6 | 0.00 | 1.03 | 0.00 | 98 | 1016.8 |
| 20260510123024 | 66 | 69 | 0.9 | 1.7 | 0.00 | 1.03 | 0.00 | 98 | 1016.7 |
| 20260510122508 | 66 | 23 | 0.9 | 2.6 | 0.00 | 1.03 | 0.00 | 98 | 1016.6 |
| 20260510122006 | 66 | 63 | 1.7 | 2.6 | 0.00 | 1.03 | 0.00 | 98 | 1016.5 |
| 20260510121505 | 66 | 122 | 0.0 | 1.7 | 0.00 | 1.03 | 0.00 | 98 | 1016.4 |
| 20260510121003 | 66 | 157 | 0.9 | 2.6 | 0.00 | 1.03 | 0.00 | 98 | 1016.4 |
| 20260510120504 | 66 | 28 | 0.9 | 2.6 | 0.00 | 1.03 | 0.00 | 98 | 1016.4 |
| 20260510120013 | 66 | 57 | 0.0 | 3.5 | 0.00 | 1.03 | 0.00 | 98 | 1016.3 |
| 20260510115503 | 66 | 26 | 0.9 | 3.5 | 0.00 | 1.03 | 0.00 | 98 | 1016.3 |
| 20260510115003 | 66 | 333 | 0.9 | 2.6 | 0.00 | 1.03 | 0.00 | 98 | 1016.3 |
| 20260510114514 | 66 | 45 | 0.9 | 2.6 | 0.00 | 1.03 | 0.00 | 98 | 1016.2 |
| 20260510114007 | 66 | 344 | 0.0 | 2.6 | 0.00 | 1.03 | 0.00 | 98 | 1016.1 |
| 20260510113507 | 65 | 331 | 0.9 | 2.6 | 0.00 | 1.03 | 0.00 | 98 | 1016.0 |
| 20260510113037 | 65 | 336 | 0.9 | 2.6 | 0.00 | 1.03 | 0.00 | 97 | 1015.9 |
| 20260510112512 | 65 | 13 | 0.9 | 2.6 | 0.00 | 1.03 | 0.00 | 97 | 1015.8 |
| 20260510112010 | 65 | 329 | 0.9 | 1.7 | 0.00 | 1.03 | 0.00 | 97 | 1015.7 |
| 20260510111526 | 65 | 352 | 0.0 | 0.0 | 0.00 | 1.03 | 0.00 | 97 | 1015.6 |
| 20260510111010 | 65 | 82 | 0.0 | 0.0 | 0.00 | 1.03 | 0.00 | 97 | 1015.5 |
| 20260510110503 | 65 | 88 | 0.0 | 1.7 | 0.00 | 1.03 | 0.00 | 97 | 1015.4 |
| 20260510110022 | 65 | 123 | 0.0 | 1.7 | 0.00 | 1.03 | 0.00 | 97 | 1015.4 |
| 20260510105504 | 65 | 105 | 0.0 | 0.9 | 0.00 | 1.03 | 0.00 | 97 | 1015.3 |
| 20260510105001 | 65 | 86 | 0.0 | 1.7 | 0.00 | 1.03 | 0.00 | 97 | 1015.2 |
| 20260510104515 | 65 | 86 | 0.9 | 1.7 | 0.00 | 1.03 | 0.00 | 97 | 1015.2 |
| 20260510104006 | 65 | 85 | 0.0 | 1.7 | 0.00 | 1.03 | 0.00 | 97 | 1015.1 |
| 20260510103503 | 65 | 85 | 0.9 | 1.7 | 0.00 | 1.03 | 0.00 | 97 | 1015.0 |
| 20260510103021 | 66 | 92 | 0.9 | 1.7 | 0.00 | 1.03 | 0.00 | 97 | 1015.0 |
| 20260510102512 | 65 | 115 | 0.9 | 1.7 | 0.00 | 1.03 | 0.00 | 97 | 1015.0 |
| 20260510102007 | 65 | 152 | 0.0 | 0.0 | 0.00 | 1.03 | 0.00 | 97 | 1015.0 |
| 20260510101526 | 65 | 152 | 0.0 | 2.6 | 0.00 | 1.03 | 0.00 | 97 | 1015.1 |
| 20260510101008 | 66 | 152 | 0.0 | 2.6 | 0.00 | 1.03 | 0.00 | 97 | 1014.9 |
| 20260510100513 | 66 | 103 | 1.7 | 2.6 | 0.00 | 1.03 | 0.00 | 97 | 1014.7 |
| 20260510100028 | 66 | 106 | 0.9 | 2.6 | 0.00 | 1.03 | 0.00 | 97 | 1014.7 |
| 20260510095505 | 66 | 113 | 0.0 | 0.9 | 0.00 | 1.03 | 0.00 | 97 | 1014.9 |
| 20260510095004 | 66 | 42 | 0.0 | 2.6 | 0.00 | 1.03 | 0.00 | 97 | 1014.8 |
| 20260510094515 | 66 | 65 | 1.7 | 2.6 | 0.00 | 1.03 | 0.00 | 97 | 1014.8 |
| 20260510094004 | 66 | 90 | 1.7 | 2.6 | 0.00 | 1.03 | 0.00 | 97 | 1014.9 |
| 20260510093509 | 66 | 83 | 0.0 | 0.0 | 0.00 | 1.03 | 0.00 | 97 | 1014.9 |
| 20260510093022 | 66 | 83 | 0.0 | 1.7 | 0.00 | 1.03 | 0.00 | 97 | 1014.9 |
| 20260510092507 | 66 | 83 | 0.0 | 1.7 | 0.00 | 1.03 | 0.00 | 97 | 1014.7 |
| 20260510092008 | 66 | 83 | 0.0 | 1.7 | 0.00 | 1.03 | 0.00 | 97 | 1014.7 |
| 20260510091523 | 66 | 90 | 0.9 | 2.6 | 0.00 | 1.03 | 0.00 | 97 | 1014.6 |
| 20260510091008 | 66 | 90 | 1.7 | 2.6 | 0.00 | 1.03 | 0.00 | 97 | 1014.4 |
| 20260510090507 | 66 | 122 | 0.9 | 2.6 | 0.00 | 1.03 | 0.00 | 97 | 1014.4 |
| 20260510090040 | 66 | 90 | 2.6 | 2.6 | 0.00 | 1.03 | 0.00 | 97 | 1014.2 |
| 20260510085508 | 66 | 98 | 1.7 | 2.6 | 0.00 | 1.03 | 0.00 | 97 | 1014.4 |
| 20260510085006 | 66 | 118 | 0.9 | 2.6 | 0.00 | 1.03 | 0.00 | 97 | 1014.2 |
| 20260510084517 | 66 | 73 | 0.9 | 2.6 | 0.00 | 1.03 | 0.00 | 97 | 1014.2 |
| 20260510084004 | 66 | 72 | 0.9 | 2.6 | 0.00 | 1.03 | 0.00 | 97 | 1014.1 |
| 20260510083505 | 66 | 26 | 0.9 | 1.7 | 0.00 | 1.03 | 0.00 | 97 | 1014.1 |
| 20260510083017 | 66 | 33 | 0.9 | 1.7 | 0.00 | 1.03 | 0.00 | 97 | 1014.2 |
| 20260510082508 | 66 | 352 | 0.0 | 1.7 | 0.00 | 1.03 | 0.00 | 97 | 1014.1 |
| 20260510082007 | 65 | 352 | 0.0 | 1.7 | 0.00 | 1.03 | 0.00 | 97 | 1014.1 |
| 20260510081525 | 65 | 352 | 0.0 | 1.7 | 0.00 | 1.03 | 0.00 | 97 | 1014.1 |
| 20260510081006 | 65 | 352 | 0.0 | 1.7 | 0.00 | 1.03 | 0.00 | 97 | 1013.8 |
| 20260510080509 | 65 | 352 | 0.0 | 1.7 | 0.00 | 1.03 | 0.00 | 97 | 1013.8 |
| 20260510080023 | 65 | 352 | 0.0 | 1.7 | 0.00 | 1.03 | 0.00 | 97 | 1013.6 |
| 20260510075507 | 65 | 352 | 0.0 | 1.7 | 0.00 | 1.03 | 0.00 | 97 | 1013.7 |
| 20260510075012 | 65 | 352 | 0.9 | 1.7 | 0.00 | 1.03 | 0.00 | 97 | 1013.6 |
| 20260510074531 | 65 | 352 | 0.0 | 1.7 | 0.00 | 1.03 | 0.00 | 97 | 1013.5 |
| 20260510074006 | 65 | 352 | 0.0 | 1.7 | 0.00 | 1.03 | 0.00 | 97 | 1013.5 |
| 20260510073503 | 65 | 352 | 0.0 | 1.7 | 0.00 | 1.03 | 0.00 | 97 | 1013.3 |
| 20260510073018 | 65 | 352 | 0.0 | 1.7 | 0.00 | 1.03 | 0.00 | 97 | 1013.2 |
| 20260510072504 | 65 | 352 | 0.0 | 1.7 | 0.00 | 1.03 | 0.00 | 97 | 1013.2 |
| 20260510072003 | 65 | 352 | 0.9 | 1.7 | 0.00 | 1.03 | 0.00 | 97 | 1013.2 |
| 20260510071522 | 66 | 5 | 0.0 | 1.7 | 0.00 | 1.03 | 0.00 | 97 | 1013.1 |
| 20260510071006 | 66 | 74 | 0.9 | 2.6 | 0.00 | 1.03 | 0.00 | 97 | 1013.1 |
| 20260510070506 | 66 | 345 | 1.7 | 3.5 | 0.00 | 1.03 | 0.00 | 97 | 1013.2 |
| 20260510070027 | 66 | 144 | 1.7 | 3.5 | 0.00 | 1.03 | 0.00 | 97 | 1013.1 |
| 20260510065503 | 66 | 349 | 0.0 | 1.7 | 0.00 | 1.03 | 0.00 | 97 | 1013.3 |
| 20260510065003 | 66 | 349 | 0.0 | 1.7 | 0.00 | 1.03 | 0.00 | 97 | 1013.4 |
| 20260510064508 | 66 | 349 | 0.0 | 1.7 | 0.00 | 1.03 | 0.00 | 97 | 1013.4 |
| 20260510064003 | 66 | 349 | 0.0 | 1.7 | 0.00 | 1.03 | 0.00 | 97 | 1013.4 |
| 20260510063505 | 66 | 349 | 0.9 | 1.7 | 0.00 | 1.03 | 0.00 | 97 | 1013.4 |
| 20260510063014 | 66 | 349 | 0.0 | 1.7 | 0.00 | 1.03 | 0.00 | 97 | 1013.7 |
| 20260510062503 | 66 | 349 | 0.0 | 1.7 | 0.00 | 1.03 | 0.00 | 97 | 1013.5 |
| 20260510062007 | 66 | 349 | 0.0 | 1.7 | 0.00 | 1.03 | 0.00 | 97 | 1013.5 |
| 20260510061519 | 66 | 349 | 0.0 | 1.7 | 0.00 | 1.03 | 0.00 | 97 | 1013.7 |
| 20260510061007 | 66 | 349 | 0.9 | 1.7 | 0.00 | 1.03 | 0.00 | 97 | 1013.5 |
| 20260510060506 | 66 | 340 | 0.9 | 1.7 | 0.00 | 1.03 | 0.00 | 97 | 1013.6 |
| 20260510060021 | 66 | 239 | 0.0 | 1.7 | 0.00 | 1.03 | 0.00 | 97 | 1013.6 |
| 20260510055510 | 66 | 239 | 0.0 | 1.7 | 0.00 | 1.03 | 0.00 | 97 | 1013.7 |
| 20260510055006 | 66 | 239 | 0.0 | 1.7 | 0.00 | 1.03 | 0.00 | 97 | 1013.7 |
| 20260510054506 | 66 | 239 | 0.0 | 1.7 | 0.00 | 1.03 | 0.00 | 97 | 1013.9 |
| 20260510054005 | 66 | 239 | 0.0 | 1.7 | 0.00 | 1.03 | 0.00 | 97 | 1013.9 |
| 20260510053502 | 66 | 296 | 0.0 | 1.7 | 0.00 | 1.03 | 0.00 | 97 | 1014.0 |
| 20260510053012 | 66 | 296 | 0.0 | 2.6 | 0.00 | 1.03 | 0.00 | 97 | 1014.1 |
| 20260510052504 | 66 | 296 | 0.0 | 2.6 | 0.00 | 1.03 | 0.00 | 97 | 1014.2 |
| 20260510052002 | 66 | 298 | 0.9 | 2.6 | 0.00 | 1.03 | 0.00 | 97 | 1014.3 |
| 20260510051518 | 66 | 331 | 0.9 | 1.7 | 0.00 | 1.03 | 0.00 | 97 | 1014.2 |
| 20260510051006 | 66 | 309 | 0.0 | 1.7 | 0.00 | 1.03 | 0.00 | 97 | 1014.3 |
| 20260510050509 | 66 | 273 | 0.9 | 2.6 | 0.00 | 1.03 | 0.00 | 97 | 1014.5 |
| 20260510050022 | 66 | 270 | 1.7 | 2.6 | 0.00 | 1.03 | 0.00 | 97 | 1014.9 |
| 20260510045507 | 66 | 278 | 1.7 | 2.6 | 0.00 | 1.03 | 1.03 | 97 | 1014.6 |
| 20260510045010 | 66 | 297 | 1.7 | 3.5 | 0.00 | 1.03 | 1.03 | 97 | 1014.6 |
| 20260510044533 | 66 | 325 | 1.7 | 3.5 | 0.00 | 1.03 | 1.03 | 97 | 1014.7 |
| 20260510044010 | 66 | 281 | 0.9 | 1.7 | 0.00 | 1.03 | 1.03 | 97 | 1014.9 |
| 20260510043504 | 66 | 239 | 0.0 | 1.7 | 0.00 | 1.03 | 1.03 | 97 | 1014.5 |
| 20260510043015 | 66 | 229 | 0.0 | 2.6 | 0.00 | 1.03 | 1.03 | 97 | 1014.3 |
| 20260510042503 | 66 | 267 | 0.9 | 2.6 | 0.00 | 1.03 | 1.03 | 97 | 1014.2 |
| 20260510042005 | 66 | 273 | 0.9 | 1.7 | 0.00 | 1.04 | 1.03 | 97 | 1014.1 |
| 20260510041518 | 66 | 219 | 0.9 | 2.6 | 0.00 | 1.04 | 1.03 | 97 | 1013.6 |
| 20260510041005 | 66 | 139 | 0.9 | 2.6 | 0.00 | 1.04 | 1.03 | 97 | 1013.1 |
| 20260510040503 | 66 | 92 | 1.7 | 3.5 | 0.00 | 1.04 | 1.03 | 97 | 1012.7 |
| 20260510040021 | 67 | 103 | 1.7 | 3.5 | 0.00 | 1.04 | 1.03 | 97 | 1012.9 |
| 20260510035507 | 67 | 146 | 0.9 | 3.5 | 0.00 | 1.04 | 1.03 | 97 | 1013.1 |
| 20260510035007 | 67 | 92 | 1.7 | 3.5 | 0.00 | 1.04 | 1.03 | 97 | 1012.8 |
| 20260510034524 | 67 | 76 | 1.7 | 3.5 | 0.00 | 1.04 | 1.03 | 97 | 1012.8 |
| 20260510034007 | 67 | 74 | 1.7 | 3.5 | 0.00 | 1.04 | 1.03 | 97 | 1013.0 |
| 20260510033508 | 67 | 106 | 1.7 | 3.5 | 0.00 | 1.04 | 1.03 | 97 | 1013.3 |
| 20260510033026 | 67 | 85 | 1.7 | 3.5 | 0.01 | 1.04 | 1.03 | 97 | 1013.2 |
| 20260510032503 | 67 | 86 | 1.7 | 3.5 | 0.01 | 1.04 | 1.03 | 97 | 1013.6 |
| 20260510032004 | 67 | 43 | 2.6 | 3.5 | 0.01 | 1.04 | 1.03 | 96 | 1013.7 |
| 20260510031520 | 67 | 32 | 0.9 | 1.7 | 0.01 | 1.04 | 1.03 | 96 | 1014.0 |
| 20260510031004 | 67 | 69 | 0.9 | 1.7 | 0.01 | 1.04 | 1.03 | 96 | 1014.2 |
| 20260510030506 | 67 | 92 | 0.9 | 0.9 | 0.01 | 1.04 | 1.03 | 97 | 1014.7 |
| 20260510030031 | 67 | 315 | 0.0 | 1.7 | 0.01 | 1.04 | 1.03 | 96 | 1015.1 |
| 20260510025506 | 67 | 315 | 0.0 | 1.7 | 0.01 | 1.04 | 1.03 | 96 | 1015.3 |
| 20260510025006 | 67 | 315 | 0.0 | 0.9 | 0.01 | 1.04 | 1.03 | 96 | 1015.3 |
| 20260510024525 | 67 | 315 | 0.0 | 0.0 | 0.01 | 1.04 | 1.03 | 96 | 1015.2 |
| 20260510024007 | 67 | 315 | 0.0 | 0.9 | 0.01 | 1.04 | 1.03 | 96 | 1015.2 |
| 20260510023510 | 67 | 315 | 0.0 | 1.7 | 0.01 | 1.04 | 1.03 | 96 | 1015.1 |
| 20260510023026 | 67 | 315 | 0.0 | 1.7 | 0.00 | 1.03 | 1.02 | 96 | 1015.1 |
| 20260510022507 | 67 | 315 | 0.0 | 1.7 | 0.00 | 1.03 | 1.02 | 96 | 1015.1 |
| 20260510022010 | 67 | 315 | 0.0 | 1.7 | 0.00 | 1.03 | 1.02 | 96 | 1014.7 |
| 20260510021514 | 67 | 315 | 0.9 | 3.5 | 0.00 | 1.03 | 1.02 | 96 | 1014.7 |
| 20260510021004 | 67 | 24 | 0.9 | 3.5 | 0.00 | 1.03 | 1.02 | 96 | 1014.1 |
| 20260510020505 | 67 | 75 | 1.7 | 2.6 | 0.00 | 1.03 | 1.02 | 96 | 1014.1 |
| 20260510020016 | 67 | 142 | 0.0 | 1.7 | 0.00 | 1.03 | 1.02 | 96 | 1014.2 |
| 20260510015505 | 67 | 142 | 0.0 | 0.9 | 0.00 | 1.03 | 1.02 | 96 | 1014.4 |
| 20260510015006 | 67 | 142 | 0.0 | 0.9 | 0.00 | 1.03 | 1.02 | 96 | 1014.5 |
| 20260510014521 | 67 | 142 | 0.0 | 0.0 | 0.00 | 1.03 | 1.02 | 96 | 1014.5 |
| 20260510014007 | 67 | 142 | 0.0 | 0.0 | 0.00 | 1.03 | 1.02 | 96 | 1014.2 |
| 20260510013508 | 67 | 142 | 0.0 | 0.0 | 0.00 | 1.03 | 1.02 | 96 | 1014.1 |
| 20260510013025 | 67 | 142 | 0.0 | 0.0 | 0.00 | 1.03 | 1.02 | 96 | 1014.0 |
| 20260510012507 | 67 | 142 | 0.0 | 1.7 | 0.00 | 1.03 | 1.02 | 96 | 1013.9 |
| 20260510012010 | 67 | 142 | 0.0 | 1.7 | 0.00 | 1.03 | 1.02 | 96 | 1013.9 |
| 20260510011528 | 67 | 142 | 0.0 | 0.9 | 0.00 | 1.03 | 1.02 | 96 | 1013.7 |
| 20260510011013 | 67 | 142 | 0.9 | 0.9 | 0.00 | 1.03 | 1.02 | 96 | 1013.5 |
| 20260510010503 | 68 | 169 | 0.0 | 1.7 | 0.00 | 1.03 | 1.02 | 96 | 1013.5 |
| 20260510010016 | 68 | 248 | 0.0 | 1.7 | 0.00 | 1.03 | 1.02 | 95 | 1013.6 |
| 20260510005503 | 68 | 248 | 0.0 | 1.7 | 0.00 | 1.03 | 1.02 | 95 | 1013.6 |
| 20260510005005 | 68 | 248 | 0.0 | 1.7 | 0.00 | 1.03 | 1.02 | 95 | 1013.6 |
| 20260510004518 | 68 | 248 | 0.0 | 1.7 | 0.00 | 1.03 | 1.02 | 95 | 1013.5 |
| 20260510004010 | 68 | 248 | 0.0 | 1.7 | 0.00 | 1.03 | 1.02 | 95 | 1013.5 |
| 20260510003508 | 68 | 248 | 0.0 | 1.7 | 0.00 | 1.03 | 1.02 | 95 | 1013.5 |
| 20260510003026 | 68 | 248 | 0.0 | 1.7 | 0.00 | 1.03 | 1.02 | 95 | 1013.6 |
| 20260510002506 | 68 | 248 | 0.0 | 1.7 | 0.00 | 1.03 | 1.02 | 95 | 1013.7 |
| 20260510002010 | 68 | 334 | 0.0 | 1.7 | 0.00 | 1.03 | 1.02 | 95 | 1013.7 |
| 20260510001525 | 68 | 334 | 0.9 | 1.7 | 0.00 | 1.03 | 1.02 | 95 | 1013.6 |
| 20260510001009 | 68 | 346 | 0.9 | 1.7 | 0.00 | 1.03 | 1.02 | 94 | 1013.5 |
| 20260510000510 | 68 | 345 | 0.0 | 1.7 | 0.00 | 1.03 | 1.02 | 94 | 1013.3 |
| 20260510000030 | 68 | 346 | 0.9 | 1.7 | 0.00 | 1.03 | 1.02 | 94 | 1013.1 |
| 20260509235503 | 69 | 22 | 0.0 | 1.7 | 0.00 | 1.03 | 1.02 | 94 | 1012.9 |
| 20260509235008 | 69 | 126 | 0.0 | 1.7 | 0.00 | 1.03 | 1.02 | 94 | 1012.9 |
| 20260509234518 | 69 | 125 | 0.0 | 0.9 | 0.00 | 1.03 | 1.02 | 94 | 1012.8 |
| 20260509234006 | 69 | 114 | 0.9 | 1.7 | 0.00 | 1.03 | 1.02 | 93 | 1012.9 |
| 20260509233505 | 69 | 49 | 0.9 | 0.9 | 0.00 | 1.03 | 1.02 | 93 | 1012.9 |
| 20260509233025 | 69 | 120 | 0.0 | 0.9 | 0.00 | 1.03 | 1.02 | 93 | 1012.8 |
| 20260509232510 | 69 | 16 | 0.0 | 1.7 | 0.00 | 1.03 | 1.02 | 93 | 1012.9 |
| 20260509232009 | 69 | 333 | 0.0 | 1.7 | 0.00 | 1.03 | 1.02 | 93 | 1013.1 |
| 20260509231524 | 69 | 333 | 0.0 | 0.9 | 0.00 | 1.03 | 1.02 | 92 | 1013.2 |
| 20260509231007 | 69 | 333 | 0.0 | 1.7 | 0.00 | 1.03 | 1.02 | 92 | 1013.3 |
| 20260509230508 | 69 | 333 | 0.0 | 1.7 | 0.00 | 1.03 | 1.02 | 92 | 1013.1 |
| 20260509230027 | 69 | 333 | 0.0 | 1.7 | 0.00 | 1.03 | 1.02 | 92 | 1013.0 |
| 20260509225507 | 69 | 42 | 0.9 | 1.7 | 0.00 | 1.03 | 1.02 | 92 | 1012.7 |
| 20260509225003 | 69 | 61 | 0.9 | 1.7 | 0.00 | 1.03 | 1.02 | 92 | 1012.6 |
| 20260509224517 | 69 | 352 | 0.9 | 3.5 | 0.00 | 1.03 | 1.02 | 91 | 1012.4 |
| 20260509224003 | 69 | 18 | 0.0 | 4.3 | 0.00 | 1.03 | 1.02 | 91 | 1012.3 |
| 20260509223504 | 70 | 53 | 1.7 | 4.3 | 0.00 | 1.04 | 1.02 | 91 | 1012.1 |
| 20260509223018 | 70 | 31 | 1.7 | 3.5 | 0.00 | 1.04 | 1.02 | 90 | 1012.0 |
| 20260509222507 | 70 | 18 | 1.7 | 3.5 | 0.00 | 1.04 | 1.02 | 91 | 1012.3 |
| 20260509222006 | 70 | 325 | 0.9 | 4.3 | 0.00 | 1.07 | 1.02 | 91 | 1012.4 |
| 20260509221528 | 70 | 341 | 0.9 | 4.3 | 0.00 | 1.09 | 1.02 | 91 | 1012.7 |